Flag for Germany Weather past 2 weeks in Radebeul, Saxony, Germany

Now
36 °F

Overcast.


Feels Like: 36 °F
Forecast: 37 / 52 °F
Wind: 2 mph from Northwest

Location: Dresden-Klotzsche

Current Time: Mar 6, 2015 at 5:00:18 AM

Latest Report: Mar 6, 2015 at 3:00 AM


Visibility: 6 mi

Pressure: 30.59 "Hg

Humidity: 93%

Dew point: 34 °F

Location of RadebeulLocation

Historic Weather in Radebeul — Graph

°F

Radebeul temperature yesterday

Maximum temperature yesterday: 42 °F (at 4:00 PM)
Minimum temperature yesterday: 35 °F (at 6:00 AM)
Average temperature yesterday: 37 °F

Past Weeks' High & Low Weather Summary

 TemperatureHumidityPressure
High53 °F (Feb 20, 3:00 PM)98% (Mar 3, 12:00 AM)30.59 "Hg (Mar 3, 12:00 AM)
Low25 °F (Feb 20, 8:00 AM)34% (Feb 26, 3:00 PM)29.44 "Hg (Feb 21, 2:00 PM)
Average38 °F75%29.96 "Hg
* Reported Feb 19 3:00 AM — Mar 6 3:00 AM, Radebeul, Weather by CustomWeather, © 2015

Note: Actual official high and low records may vary slightly from our data, if they occured in-between our weather recording intervals... More about our weather records

Advertising

Radebeul weather history for previous 24 hours

 ConditionsComfort  
Time TempWeatherWind HumidityBarometerVisibility
3:00 AM
Fri, Mar 6
36 °FOvercast.2 mph93%30.59 "Hg6 mi
2:00 AM36 °FOvercast.2 mph94%30.59 "Hg6 mi
1:00 AM36 °FOvercast.3 mph94%30.58 "Hg7 mi
12:00 AM37 °FOvercast.3 mph94%30.57 "Hg10 mi
9:00 PM
Thu, Mar 5
37 °FOvercast.3 mph94%30.57 "Hg14 mi
8:00 PM36 °FOvercast.2 mph94%30.56 "Hg16 mi
7:00 PM37 °FOvercast.5 mph94%30.55 "Hg12 mi
6:00 PM39 °FLight rain. Overcast.7 mph80%30.52 "Hg16 mi
5:00 PM41 °FPartly sunny.5 mph67%30.51 "Hg28 mi
4:00 PM42 °FPartly sunny.6 mph62%30.50 "Hg31 mi
3:00 PM40 °FOvercast.7 mph65%30.51 "Hg25 mi
2:00 PM41 °FPartly sunny.7 mph66%30.51 "Hg22 mi
1:00 PM39 °FPartly sunny.7 mph68%30.52 "Hg22 mi
12:00 PM39 °FPartly sunny.8 mph75%30.52 "Hg19 mi
11:00 AM36 °FOvercast.7 mph89%30.50 "Hg16 mi
9:00 AM36 °FLight rain. Low clouds.7 mph97%30.46 "Hg5 mi
8:00 AM35 °FLow clouds.5 mph98%30.43 "Hg3 mi
7:00 AM35 °FLow clouds.6 mph97%30.40 "Hg5 mi
6:00 AM35 °FLow clouds.5 mph97%30.38 "Hg6 mi
5:00 AM35 °FLight rain. Low clouds.5 mph96%30.35 "Hg4 mi
Weather by CustomWeather, © 2015

See weather overviewHow to use our weather pages